GW3437 Weather Reports


Display with metric or nautical units.
time (UTC)temp
F
wind
direction
speed
MPH
gust
MPH
rain 1hr
in
rain 24hr
in
rain mn
in
humidity
%
barometer
mb
20260504010354 78 179 9.0 13.0 0.00 0.00 0.00 29 1012.4
20260504005845 78 160 6.0 14.0 0.00 0.00 0.00 29 1012.4
20260504005342 79 215 9.0 17.0 0.00 0.00 0.00 28 1012.3
20260504004840 79 207 5.0 13.0 0.00 0.00 0.00 28 1012.5
20260504004337 79 163 6.0 14.0 0.00 0.00 0.00 28 1012.3
20260504003833 79 187 9.0 10.0 0.00 0.00 0.00 28 1012.4
20260504003330 80 242 6.0 10.0 0.00 0.00 0.00 28 1012.4
20260504002827 80 121 10.0 13.0 0.00 0.00 0.00 27 1012.6
20260504002324 81 148 6.0 9.0 0.00 0.00 0.00 27 1012.5
20260504001822 81 168 7.0 13.0 0.00 0.00 0.00 27 1012.7
20260504001319 82 195 4.0 15.0 0.00 0.00 0.00 26 1012.6
20260504000815 82 264 7.0 14.0 0.00 0.00 0.00 26 1012.7
20260504000312 82 239 5.0 8.0 0.00 0.00 0.00 26 1012.8
20260503235810 82 203 10.0 14.0 0.00 0.00 0.00 26 1012.6
20260503235308 82 164 8.0 15.0 0.00 0.00 0.00 26 1012.7
20260503234805 82 196 8.0 14.0 0.00 0.00 0.00 25 1012.9
20260503234303 83 303 9.0 15.0 0.00 0.00 0.00 24 1012.8
20260503233800 83 249 10.0 16.0 0.00 0.00 0.00 24 1012.8
20260503233255 83 253 8.0 14.0 0.00 0.00 0.00 24 1012.7
20260503232753 83 280 7.0 11.0 0.00 0.00 0.00 25 1013.1
20260503232250 83 163 7.0 10.0 0.00 0.00 0.00 25 1012.9
20260503231748 83 183 6.0 11.0 0.00 0.00 0.00 26 1013.1
20260503231245 83 229 6.0 9.0 0.00 0.00 0.00 24 1013.1
20260503230740 83 183 11.0 14.0 0.00 0.00 0.00 24 1013.4
20260503230238 84 252 7.0 13.0 0.00 0.00 0.00 25 1013.2
20260503225736 84 176 9.0 13.0 0.00 0.00 0.00 25 1013.1
20260503225235 84 233 13.0 16.0 0.00 0.00 0.00 24 1013.1
20260503224732 84 220 6.0 15.0 0.00 0.00 0.00 24 1013.0
20260503224230 84 251 8.0 13.0 0.00 0.00 0.00 24 1013.1
20260503223728 84 185 7.0 14.0 0.00 0.00 0.00 24 1013.0
20260503223225 84 247 10.0 15.0 0.00 0.00 0.00 23 1013.0
20260503222721 85 201 5.0 16.0 0.00 0.00 0.00 24 1013.2
20260503222219 85 232 6.0 14.0 0.00 0.00 0.00 24 1013.3
20260503221717 84 205 7.0 13.0 0.00 0.00 0.00 24 1013.3
20260503221215 84 193 6.0 13.0 0.00 0.00 0.00 25 1013.3
20260503220711 84 184 8.0 14.0 0.00 0.00 0.00 24 1013.5
20260503220208 85 257 9.0 13.0 0.00 0.00 0.00 24 1013.6
20260503215705 85 179 6.0 13.0 0.00 0.00 0.00 25 1013.7
20260503215202 85 165 7.0 11.0 0.00 0.00 0.00 26 1013.4
20260503214700 84 242 5.0 13.0 0.00 0.00 0.00 26 1013.4
20260503214155 85 213 6.0 14.0 0.00 0.00 0.00 26 1013.7
20260503213649 85 190 5.0 14.0 0.00 0.00 0.00 26 1013.6
20260503213146 84 212 7.0 17.0 0.00 0.00 0.00 25 1013.7
20260503212643 85 227 9.0 16.0 0.00 0.00 0.00 25 1013.8
20260503212140 85 234 7.0 13.0 0.00 0.00 0.00 23 1014.2
20260503211638 85 231 4.0 17.0 0.00 0.00 0.00 23 1014.1
20260503211133 85 260 6.0 16.0 0.00 0.00 0.00 22 1014.3
20260503210630 86 229 9.0 18.0 0.00 0.00 0.00 22 1014.3
20260503210127 85 176 6.0 14.0 0.00 0.00 0.00 23 1014.2
20260503205622 85 162 8.0 16.0 0.00 0.00 0.00 24 1014.4
20260503205119 85 232 5.0 13.0 0.00 0.00 0.00 24 1014.4
20260503204616 85 218 8.0 15.0 0.00 0.00 0.00 23 1014.6
20260503204113 85 220 10.0 13.0 0.00 0.00 0.00 24 1014.7
20260503203610 84 202 3.0 8.0 0.00 0.00 0.00 24 1014.7
20260503203108 85 179 8.0 13.0 0.00 0.00 0.00 24 1014.9
20260503202605 85 221 6.0 11.0 0.00 0.00 0.00 23 1015.0
20260503202103 86 186 5.0 16.0 0.00 0.00 0.00 23 1015.0
20260503201600 85 180 4.0 17.0 0.00 0.00 0.00 24 1015.1
20260503201057 85 115 11.0 16.0 0.00 0.00 0.00 24 1015.0
20260503200554 85 241 5.0 10.0 0.00 0.00 0.00 24 1015.3
20260503200050 86 160 7.0 11.0 0.00 0.00 0.00 24 1015.4
20260503195547 84 198 4.0 13.0 0.00 0.00 0.00 26 1015.4
20260503195044 85 196 10.0 18.0 0.00 0.00 0.00 24 1015.7
20260503194541 85 205 8.0 13.0 0.00 0.00 0.00 23 1015.6
20260503194041 85 188 6.0 15.0 0.00 0.00 0.00 23 1015.9
20260503193538 86 162 12.0 15.0 0.00 0.00 0.00 24 1015.7
20260503193033 86 266 5.0 11.0 0.00 0.00 0.00 22 1015.9
20260503192530 86 205 2.0 8.0 0.00 0.00 0.00 22 1015.9
20260503192026 85 188 10.0 16.0 0.00 0.00 0.00 22 1015.9
20260503191523 85 179 4.0 11.0 0.00 0.00 0.00 22 1016.1
20260503191019 85 218 5.0 14.0 0.00 0.00 0.00 22 1016.4
20260503190516 85 227 11.0 16.0 0.00 0.00 0.00 21 1016.0
20260503190008 85 199 4.0 8.0 0.00 0.00 0.00 21 1016.3
20260503185504 85 93 5.0 14.0 0.00 0.00 0.00 22 1016.3
20260503185004 85 220 3.0 11.0 0.00 0.00 0.00 23 1016.2
20260503184500 86 176 6.0 10.0 0.00 0.00 0.00 21 1016.4
20260503183956 86 278 7.0 11.0 0.00 0.00 0.00 21 1016.5
20260503183453 85 158 6.0 15.0 0.00 0.00 0.00 23 1016.7
20260503182950 85 213 8.0 10.0 0.00 0.00 0.00 24 1016.6
20260503182449 85 214 4.0 9.0 0.00 0.00 0.00 25 1016.4
20260503181946 85 256 8.0 9.0 0.00 0.00 0.00 25 1016.6
20260503181443 84 179 6.0 11.0 0.00 0.00 0.00 28 1016.7
20260503180939 85 310 3.0 10.0 0.00 0.00 0.00 28 1016.7
20260503180438 85 215 6.0 10.0 0.00 0.00 0.00 28 1016.9
20260503175934 83 232 5.0 10.0 0.00 0.00 0.00 28 1016.9
20260503175432 83 241 11.0 14.0 0.00 0.00 0.00 29 1017.1
20260503174928 83 145 7.0 10.0 0.00 0.00 0.00 28 1017.0
20260503174426 82 224 6.0 9.0 0.00 0.00 0.00 30 1017.3
20260503173926 83 177 8.0 13.0 0.00 0.00 0.00 30 1017.2
20260503173423 83 179 6.0 11.0 0.00 0.00 0.00 30 1017.3
20260503172920 83 242 3.0 8.0 0.00 0.00 0.00 30 1017.7
20260503172417 82 191 4.0 10.0 0.00 0.00 0.00 33 1017.8
20260503171913 82 216 5.0 9.0 0.00 0.00 0.00 32 1017.7
20260503171410 81 174 7.0 11.0 0.00 0.00 0.00 32 1017.8
20260503170908 81 183 5.0 7.0 0.00 0.00 0.00 34 1017.8
20260503170403 80 187 3.0 9.0 0.00 0.00 0.00 35 1018.0
20260503150756 71 179 4.0 6.0 0.00 0.00 0.00 44 1018.2
20260503150252 71 168 4.0 6.0 0.00 0.00 0.00 45 1018.2
20260503140217 65 245 7.0 10.0 0.00 0.00 0.00 54 1018.5
20260503131146 59 177 2.0 4.0 0.00 0.00 0.00 68 1018.4
20260503130643 59 170 3.0 7.0 0.00 0.00 0.00 69 1018.4
20260503130141 58 175 2.0 3.0 0.00 0.00 0.00 70 1018.5
20260503120106 53 198 1.0 2.0 0.00 0.00 0.00 78 1018.1
20260503110533 53 115 0.0 2.0 0.00 0.00 0.00 75 1018.1
20260503090420 56 113 1.0 1.0 0.00 0.00 0.00 65 1019.3
20260503081347 56 175 0.0 0.0 0.00 0.00 0.00 66 1019.5
20260503080843 56 145 0.0 0.0 0.00 0.00 0.00 66 1019.8
20260503080341 55 123 0.0 0.0 0.00 0.00 0.00 66 1019.8
20260503072817 56 158 0.0 1.0 0.00 0.00 0.00 64 1019.8
20260503072314 56 102 0.0 0.0 0.00 0.00 0.00 64 1019.9
20260503071809 56 157 0.0 1.0 0.00 0.00 0.00 64 1020.1
20260503071302 57 111 1.0 1.0 0.00 0.00 0.00 63 1020.3
20260503070757 57 95 0.0 1.0 0.00 0.00 0.00 63 1020.2
20260503070256 57 111 0.0 0.0 0.00 0.00 0.00 63 1020.3
20260503060215 57 130 0.0 2.0 0.00 0.00 0.00 59 1020.8
20260503054702 58 153 0.0 0.0 0.00 0.00 0.00 59 1020.6
20260503054159 58 99 0.0 1.0 0.00 0.00 0.00 59 1020.9
20260503053657 58 141 0.0 0.0 0.00 0.00 0.00 59 1020.6
20260503053155 58 131 0.0 0.0 0.00 0.00 0.00 58 1020.8
20260503052651 58 134 0.0 0.0 0.00 0.00 0.00 58 1020.6
20260503052148 58 146 0.0 0.0 0.00 0.00 0.00 57 1020.8
20260503051643 59 144 0.0 0.0 0.00 0.00 0.00 57 1020.9
20260503051141 59 127 0.0 0.0 0.00 0.00 0.00 56 1020.5
20260503050638 59 142 0.0 0.0 0.00 0.00 0.00 56 1020.6
20260503050134 59 129 0.0 1.0 0.00 0.00 0.00 56 1020.5
20260503045632 59 129 0.0 1.0 0.00 0.00 0.00 55 1020.4
20260503045129 59 116 0.0 0.0 0.00 0.00 0.00 55 1020.5
20260503044625 60 170 0.0 0.0 0.00 0.00 0.00 55 1020.5
20260503044123 60 126 0.0 1.0 0.00 0.00 0.00 55 1020.3
20260503043620 59 134 0.0 0.0 0.00 0.00 0.00 56 1020.4
20260503043116 60 114 0.0 0.0 0.00 0.00 0.00 56 1020.4
20260503042613 60 125 0.0 0.0 0.00 0.00 0.00 56 1020.5
20260503042109 59 70 0.0 0.0 0.00 0.00 0.00 57 1020.2
20260503041606 60 119 0.0 0.0 0.00 0.00 0.00 57 1020.2
20260503041104 60 131 0.0 0.0 0.00 0.00 0.00 57 1020.5
20260503040601 60 127 0.0 0.0 0.00 0.00 0.00 56 1020.3
20260503040058 61 128 0.0 2.0 0.00 0.00 0.00 55 1020.2
20260503035554 61 133 0.0 1.0 0.00 0.00 0.00 55 1020.4
20260503035052 61 108 0.0 1.0 0.00 0.00 0.00 55 1020.3
20260503034549 61 100 0.0 1.0 0.00 0.00 0.00 54 1020.4
20260503034046 62 98 0.0 3.0 0.00 0.00 0.00 52 1020.3
20260503033543 62 74 0.0 2.0 0.00 0.00 0.00 52 1020.3
20260503033041 62 110 1.0 2.0 0.00 0.00 0.00 51 1020.4
20260503032539 62 125 0.0 0.0 0.00 0.00 0.00 51 1020.5
20260503032037 63 87 1.0 1.0 0.00 0.00 0.00 49 1020.4
20260503031535 63 112 0.0 2.0 0.00 0.00 0.00 49 1020.2
20260503031032 64 107 1.0 1.0 0.00 0.00 0.00 48 1020.2
20260503030528 64 115 0.0 0.0 0.00 0.00 0.00 48 1020.1
20260503030025 64 110 0.0 2.0 0.00 0.00 0.00 47 1020.1
20260503025521 64 82 1.0 4.0 0.00 0.00 0.00 47 1020.0
20260503025020 64 86 1.0 1.0 0.00 0.00 0.00 47 1020.2
20260503024515 65 101 0.0 2.0 0.00 0.00 0.00 46 1020.1
20260503024013 65 86 1.0 1.0 0.00 0.00 0.00 45 1020.0
20260503023509 65 93 1.0 4.0 0.00 0.00 0.00 45 1020.1
20260503023007 66 101 1.0 1.0 0.00 0.00 0.00 45 1020.0
20260503022502 66 102 0.0 1.0 0.00 0.00 0.00 45 1020.1
20260503021957 66 74 1.0 4.0 0.00 0.00 0.00 45 1019.9
20260503021454 66 56 3.0 3.0 0.00 0.00 0.00 45 1019.9
20260503020951 66 73 1.0 2.0 0.00 0.00 0.00 45 1019.9
20260503020449 66 79 2.0 3.0 0.00 0.00 0.00 45 1019.6
20260503015945 66 57 0.0 2.0 0.00 0.00 0.00 45 1019.8
20260503015442 67 63 2.0 3.0 0.00 0.00 0.00 45 1019.7
20260503014938 67 64 2.0 4.0 0.00 0.00 0.00 44 1019.7
20260503014435 67 99 1.0 2.0 0.00 0.00 0.00 44 1019.6
20260503013933 67 111 0.0 1.0 0.00 0.00 0.00 43 1019.5
20260503013430 68 101 0.0 1.0 0.00 0.00 0.00 43 1019.6
20260503012927 68 94 0.0 1.0 0.00 0.00 0.00 42 1019.5
20260503012426 68 93 1.0 2.0 0.00 0.00 0.00 41 1019.5
20260503011921 69 92 0.0 1.0 0.00 0.00 0.00 41 1019.5
20260503011418 69 111 0.0 1.0 0.00 0.00 0.00 40 1019.6
20260503010915 69 87 1.0 3.0 0.00 0.00 0.00 40 1019.4